This is the latest recevied weather packets stored in our database for station/object DF7PN-WX. If no packets are shown the sender has not sent any weather packets the latest 10 day(s).
| Time | Temp. | Humidity | Pressure | Rain* | Wind** | Luminosity | Snow |
|---|---|---|---|---|---|---|---|
| 1778058395 | 17.22° C | 71% | 1006.7 hPa | - | - | - | - |
| 1778058094 | 17.22° C | 72% | 1006.7 hPa | - | - | - | - |
| 1778057794 | 17.22° C | 73% | 1006.7 hPa | - | - | - | - |
| 1778057494 | 17.22° C | 72% | 1006.7 hPa | - | - | - | - |
| 1778057194 | 17.22° C | 73% | 1006.7 hPa | - | - | - | - |
| 1778056894 | 16.67° C | 75% | 1006.7 hPa | - | - | - | - |
| 1778056594 | 17.22° C | 77% | 1006.6 hPa | - | - | - | - |
| 1778056294 | 16.67° C | 77% | 1006.5 hPa | - | - | - | - |
| 1778055994 | 16.67° C | 78% | 1006.4 hPa | - | - | - | - |
| 1778055694 | 16.11° C | 80% | 1006.4 hPa | - | - | - | - |
| 1778055394 | 16.11° C | 81% | 1006.4 hPa | - | - | - | - |
| 1778055094 | 16.11° C | 81% | 1006.4 hPa | - | - | - | - |
| 1778054794 | 16.11° C | 84% | 1006.5 hPa | - | - | - | - |
| 1778054493 | 15.56° C | 83% | 1006.5 hPa | - | - | - | - |
| 1778054193 | 15.56° C | 86% | 1006.5 hPa | - | - | - | - |
| 1778053894 | 15.56° C | 86% | 1006.4 hPa | - | - | - | - |
| 1778053593 | 15° C | 89% | 1006.5 hPa | - | - | - | - |
| 1778053293 | 15° C | 90% | 1006.5 hPa | - | - | - | - |
| 1778052993 | 14.44° C | 91% | 1006.5 hPa | - | - | - | - |
| 1778052693 | 14.44° C | 91% | 1006.5 hPa | - | - | - | - |
| 1778052393 | 15° C | 94% | 1006.5 hPa | - | - | - | - |
| 1778052093 | 15° C | 94% | 1006.5 hPa | - | - | - | - |
| 1778051793 | 15° C | 93% | 1006.6 hPa | - | - | - | - |
| 1778051493 | 14.44° C | 97% | 1006.5 hPa | - | - | - | - |
| 1778051193 | 14.44° C | 96% | 1006.5 hPa | - | - | - | - |
* Rain since midnight (hover to see other rain measurements)
** Current wind speed in m/s (hover to see current wind gust speed)